Weather Roundup
Issued by NWS Springfield, MO

Home | Current Version | Previous Version | Text Only | Print | Product List | Glossary On
Versions: 1 2 3 4 5 6 7 8 9 10 11 12 13 14 15 16 17 18 19 20 21 22 23 24 25 26 27 28 29 30 31 32 33 34 35 36 37 38 39 40 41 42 43 44 45 46 47 48 49 50
721
NZUS99 KSGF 040707
HRRSGF

HOURLY WEATHER
NATIONAL WEATHER SERVICE SPRINGFIELD MO
200 AM CDT WED MAY 04 2016

......SGF CWA......

CITY           SKY/WX    TMP DP  RH WIND       PRES   REMARKS
SPRINGFIELD    PTCLDY    50  41  71 SW8       29.94F
JOPLIN         MOCLDY    57  46  66 SW9       29.97S
WEST PLAINS    CLEAR     47  40  76 W6        29.95F
ROLLA          MOCLDY    48  41  76 SW12      29.86F
OSAGE BEACH    MOCLDY    52  37  58 SW6       29.90F

......SURROUNDING SGF CWA......

CITY           SKY/WX    TMP DP  RH WIND       PRES   REMARKS
CHANUTE        CLEAR     55  46  71 W7        29.96F
PARSONS        MOCLDY    54  49  83 SW3       29.98S
COFFEYVILLE    PTCLDY    54  48  80 S5        29.98S
EMPORIA        CLEAR     54  45  71 W7        29.96F
GROVE OK       CLEAR     50  48  93 CALM      30.00S
ROGERS AR      CLEAR     52  43  71 SW8       30.00F
SILOAM SPRINGS CLEAR     48  37  66 S5        30.01F
HARRISON AR    CLEAR     51  40  65 SW3       29.98F
NEAR YELLVILLE PTCLDY   N/A N/A N/A CALM      29.94F

......KANSAS AND MISSOURI......

CITY           SKY/WX    TMP DP  RH WIND       PRES   REMARKS
KANSAS CTY INT CLEAR     54  43  66 SW9       29.87F
DOWNTOWN KC    CLEAR     58  45  62 SW9       29.87F
COLUMBIA       CLEAR     53  43  68 SW10      29.84F
SEDALIA        CLEAR     56  46  69 SW13      29.87F
ST JOSEPH      PTCLDY    58  42  55 W10       29.86F
ST LOUIS       PTCLDY    55  42  61 SW13      29.82F
SPIRIT OF STL  CLEAR     54  42  64 SW8       29.82F
KIRKSVILLE     CLOUDY    59  41  51 W10       29.76F
WICHITA        CLEAR     54  44  69 NW9       30.01S
TOPEKA         CLEAR     51  47  86 W3        29.91F
OLATHE         CLEAR     55  44  66 SW6       29.90F

......TENNESSEE......

CITY           SKY/WX    TMP DP  RH WIND       PRES   REMARKS
MEMPHIS        CLEAR     53  49  86 W3        29.95F
NASHVILLE      CLEAR     52  46  80 NW5       29.90F

......ARKANSAS.......

CITY           SKY/WX    TMP DP  RH WIND       PRES   REMARKS
FAYETTEVILLE   CLEAR     44  44 100 S6        30.01F
FT SMITH       CLEAR     53  46  77 SW3       30.01F
LITTLE ROCK    CLEAR     54  49  83 W8        29.99F

......OKLAHOMA.......

CITY           SKY/WX    TMP DP  RH WIND       PRES   REMARKS
TULSA          CLEAR     60  45  57 SW6       29.98F
PONCA CITY     CLEAR     53  46  77 CALM      30.01S
MCALESTER      CLEAR     50  47  89 S3        30.04F
OKLAHOMA CITY  CLEAR     51  50  96 SW5       30.05S

......IOWA............

CITY           SKY/WX    TMP DP  RH WIND       PRES   REMARKS
DES MOINES     PTCLDY    59  36  42 NW14      29.78R
QUAD CITIES    LGT RAIN  51  47  86 SE9       29.67F

......ILLINOIS........

CITY           SKY/WX    TMP DP  RH WIND       PRES   REMARKS
QUINCY         CLOUDY    56  43  61 SW13      29.74F
CHICAGO        LGT RAIN  51  47  86 NW9       29.66R




USA.gov is the U.S. government's official web portal to all federal, state and local government web resources and services.